ONEWEB-0625 (55166 NORAD) Tracking and Keplerian Element Data

This shows tracking and keplerian element data for the satellite.

Feedback or suggestion? Click here.




ElementValue
Catalog55166
NameONEWEB-0625
Epoch Orbit75
Epoch Day14.25001157
Epoch Year2023
RAAN283.9922
Inclination86.5108
Eccentricity0.001092
Argument of Perigee198.8721
Mean Anonmoly56.8336
Mean Motion14.91088223
Decay Rate8.256E-05
L11 55166U 23004AC 23014.25001157 .00008256 00000+0 82984-3 0 9997
L22 55166 86.5108 283.9922 0010920 198.8721 56.8336 14.91088223 757



Live tracking and technical data element details for ONEWEB-0625 (NORAD 55166). ONEWEB-0625 can be tracked NOW for your location showing map with azimuth and elevation plus other details from your city location.







IsCatalogInMostPopularTable: catalog: 55166, numindb: 3
Update: records affected: 1



GetName: 55166 ONEWEB-0625

Hit Count: updated at: Tue, 07 Feb 2023 14:18:26 GMT